GW5977 Weather Reports


time (UTC)temp
F
wind
direction
speed
knots
gust
knots
rain 1hr
in
rain 24hr
in
rain mn
in
humidity
%
barometer
mb
20260509173804 80 113 0.0 2.6 0.00 0.00 0.00 80 1009.9
20260509173259 81 123 1.7 3.5 0.00 0.00 0.00 80 1009.8
20260509172755 81 135 1.7 2.6 0.00 0.00 0.00 80 1009.8
20260509172252 80 117 1.7 1.7 0.00 0.00 0.00 81 1009.9
20260509171748 80 126 0.9 1.7 0.00 0.00 0.00 81 1009.9
20260509171244 80 116 1.7 1.7 0.00 0.00 0.00 81 1009.9
20260509170741 80 128 0.9 2.6 0.00 0.00 0.00 81 1010.0
20260509170237 79 110 0.9 0.9 0.00 0.00 0.00 85 1010.1
20260509165736 79 110 0.0 0.9 0.00 0.00 0.00 84 1010.0
20260509165231 79 110 0.0 0.0 0.00 0.00 0.00 84 1010.2
20260509164727 79 89 0.0 0.0 0.00 0.00 0.00 82 1010.2
20260509164223 80 71 1.7 2.6 0.00 0.00 0.00 82 1010.1
20260509163721 79 144 0.0 0.0 0.00 0.00 0.00 84 1010.2
20260509163217 79 84 1.7 2.6 0.00 0.00 0.00 85 1010.2
20260509162715 78 68 1.7 1.7 0.00 0.00 0.00 89 1010.3
20260509162210 77 84 0.9 1.7 0.00 0.00 0.00 89 1010.4
20260509161706 77 77 0.9 1.7 0.00 0.00 0.00 91 1010.3
20260509161201 77 121 0.9 0.9 0.00 0.00 0.00 93 1010.2
20260509160657 76 137 0.9 2.6 0.00 0.00 0.00 94 1010.2
20260509160153 76 119 0.0 1.7 0.00 0.00 0.00 96 1010.2
20260509155649 75 117 0.0 1.7 0.00 0.00 0.00 97 1010.3
20260509155146 75 143 0.9 2.6 0.00 0.00 0.00 96 1010.4
20260509154641 75 89 0.0 0.9 0.00 0.00 0.00 97 1010.5
20260509154139 75 112 0.0 1.7 0.00 0.00 0.00 97 1010.3
20260509153636 74 112 0.0 1.7 0.00 0.00 0.00 97 1010.2
20260509153132 75 112 0.0 0.9 0.00 0.00 0.00 97 1010.1
20260509152628 74 112 0.0 0.0 0.00 0.00 0.00 98 1010.3
20260509152126 74 112 0.0 0.0 0.00 0.00 0.00 97 1009.9
20260509151622 74 112 0.0 0.0 0.00 0.00 0.00 98 1010.0
20260509151120 73 112 0.0 0.0 0.00 0.00 0.00 98 1009.7
20260509150617 73 112 0.0 0.0 0.00 0.00 0.00 98 1009.7
20260509150115 73 112 0.0 0.0 0.00 0.00 0.00 98 1009.8
20260509145611 73 112 0.0 0.0 0.00 0.00 0.00 98 1009.8
20260509145106 73 112 0.0 0.0 0.00 0.00 0.00 98 1009.9
20260509144603 73 112 0.0 0.0 0.00 0.00 0.00 98 1009.9
20260509144100 73 112 0.0 0.0 0.00 0.00 0.00 98 1010.0
20260509143557 73 112 0.0 0.0 0.00 0.00 0.00 98 1010.0
20260509143055 73 112 0.0 0.0 0.00 0.00 0.00 98 1010.0
20260509142550 73 112 0.0 0.0 0.00 0.00 0.00 98 1010.1
20260509142046 73 112 0.9 0.9 0.00 0.00 0.00 98 1010.1
20260509141543 73 112 0.9 0.9 0.00 0.00 0.00 98 1010.0
20260509141040 73 112 0.0 0.0 0.00 0.00 0.00 98 1010.0
20260509140536 73 112 0.0 0.0 0.00 0.00 0.00 98 1010.0
20260509140034 73 112 0.0 0.0 0.00 0.00 0.00 98 1009.9
20260509135531 73 91 0.0 0.0 0.00 0.00 0.00 98 1010.2
20260509135029 72 94 0.0 0.0 0.00 0.00 0.00 98 1009.7
20260509134526 72 169 2.6 2.6 0.00 0.00 0.00 98 1009.4
20260509134023 72 98 0.9 1.7 0.00 0.00 0.00 98 1009.1
20260509133520 72 128 0.9 2.6 0.00 0.00 0.00 98 1009.0
20260509133018 72 139 0.0 2.6 0.00 0.00 0.00 98 1009.0
20260509132516 72 130 0.9 0.9 0.00 0.00 0.00 98 1009.0
20260509132014 72 130 1.7 1.7 0.00 0.00 0.00 98 1009.3
20260509131510 72 130 0.9 1.7 0.00 0.00 0.00 98 1009.2
20260509131007 72 130 0.0 0.0 0.00 0.00 0.00 98 1009.3
20260509130502 72 130 0.9 1.7 0.00 0.00 0.00 98 1009.2
20260509125959 72 130 0.0 0.0 0.00 0.00 0.00 98 1009.2
20260509125455 71 130 0.0 0.0 0.00 0.00 0.00 98 1009.2
20260509124951 71 130 0.0 0.0 0.00 0.00 0.00 98 1009.1
20260509124449 71 130 0.0 0.0 0.00 0.00 0.00 98 1009.2
20260509123946 71 130 0.0 0.0 0.00 0.00 0.00 98 1009.5
20260509123443 71 130 0.0 0.0 0.00 0.00 0.00 97 1009.1
20260509122939 71 130 0.0 0.0 0.00 0.00 0.00 98 1009.1
20260509122436 71 130 0.0 0.9 0.00 0.00 0.00 97 1008.9
20260509121933 71 129 0.0 0.0 0.00 0.00 0.00 97 1009.1
20260509121430 71 129 0.0 0.0 0.00 0.00 0.00 97 1009.1
20260509120928 71 129 0.0 1.7 0.00 0.00 0.00 97 1008.9
20260509120426 71 129 0.0 0.0 0.00 0.00 0.00 97 1008.9
20260509115924 71 128 0.0 0.9 0.00 0.00 0.00 97 1008.7
20260509115420 71 128 0.0 0.9 0.00 0.00 0.00 97 1008.7
20260509114918 71 128 0.9 0.9 0.00 0.00 0.00 97 1008.6
20260509114416 71 128 0.9 1.7 0.00 0.00 0.00 97 1008.7
20260509113916 71 111 0.0 0.9 0.00 0.00 0.00 97 1009.2
20260509113413 71 110 0.0 0.0 0.00 0.00 0.00 97 1009.2
20260509112909 71 110 0.0 0.0 0.00 0.00 0.00 97 1009.3
20260509112406 71 110 0.0 0.0 0.00 0.00 0.00 97 1009.3
20260509111903 71 111 0.0 0.0 0.00 0.00 0.00 97 1008.9
20260509111400 71 136 1.7 2.6 0.00 0.00 0.00 97 1008.7
20260509110858 71 124 0.0 0.0 0.00 0.00 0.00 97 1009.0
20260509110353 71 124 0.0 0.0 0.00 0.00 0.00 97 1009.2
20260509105852 71 124 0.0 0.0 0.00 0.00 0.00 97 1009.3
20260509105350 71 124 0.0 0.0 0.00 0.00 0.00 97 1009.5
20260509104847 71 124 0.0 0.0 0.00 0.00 0.00 97 1009.5
20260509104343 71 124 0.0 0.0 0.00 0.00 0.00 97 1009.4
20260509103841 71 124 0.0 0.0 0.00 0.00 0.00 97 1009.2
20260509103338 71 124 0.0 0.0 0.00 0.00 0.00 97 1009.3
20260509102837 71 124 0.0 0.0 0.00 0.00 0.00 97 1009.2
20260509102333 71 124 0.0 0.0 0.00 0.00 0.00 97 1009.1
20260509101829 71 124 0.0 0.0 0.00 0.00 0.00 97 1009.1
20260509101326 71 124 0.0 0.0 0.00 0.00 0.00 97 1009.0
20260509100824 71 124 0.0 0.0 0.00 0.00 0.00 97 1008.9
20260509100320 71 124 0.0 0.0 0.00 0.00 0.00 97 1008.8
20260509095817 71 124 0.0 0.0 0.00 0.00 0.00 97 1008.8
20260509095314 71 124 0.0 0.9 0.00 0.00 0.00 97 1008.7
20260509094811 71 117 0.0 0.9 0.00 0.00 0.00 97 1008.6
20260509094308 71 116 0.9 0.9 0.00 0.00 0.00 97 1008.6
20260509093806 71 116 0.0 0.0 0.00 0.00 0.00 97 1009.2
20260509093303 71 110 0.0 0.0 0.00 0.00 0.00 97 1009.1
20260509092801 71 79 0.0 0.0 0.00 0.00 0.00 97 1009.3
20260509092259 71 79 0.0 0.0 0.00 0.00 0.00 97 1009.2
20260509091757 71 79 0.0 0.0 0.00 0.00 0.00 97 1009.3
20260509091253 71 79 0.0 0.0 0.00 0.00 0.00 97 1009.1
20260509090750 71 79 0.0 0.9 0.00 0.00 0.00 96 1009.6
20260509090247 71 119 0.9 1.7 0.00 0.00 0.00 96 1009.4
20260509085745 71 78 0.0 0.9 0.00 0.00 0.00 96 1009.5
20260509085242 71 123 0.0 0.9 0.00 0.00 0.00 96 1009.1
20260509084739 71 147 2.6 2.6 0.00 0.00 0.00 96 1009.0
20260509084235 71 139 0.9 1.7 0.00 0.00 0.00 96 1009.3
20260509083733 71 139 0.9 1.7 0.00 0.00 0.00 96 1009.3
20260509083230 71 135 0.9 1.7 0.00 0.00 0.00 96 1009.3
20260509082726 71 135 0.0 0.0 0.00 0.00 0.00 96 1009.3
20260509082223 71 135 0.0 0.0 0.00 0.00 0.00 96 1009.5
20260509081720 71 135 0.0 0.0 0.00 0.00 0.00 96 1009.5
20260509081218 71 135 0.0 0.0 0.00 0.00 0.00 96 1009.8
20260509080716 71 135 0.0 0.0 0.00 0.00 0.00 96 1009.7
20260509080213 71 135 0.0 0.0 0.00 0.00 0.00 95 1009.9
20260509075711 71 135 0.0 0.0 0.00 0.00 0.00 95 1009.9
20260509075209 71 135 0.0 0.0 0.00 0.00 0.00 95 1010.1
20260509074705 71 135 0.0 0.0 0.00 0.00 0.00 95 1010.2
20260509074202 71 135 0.0 0.0 0.00 0.00 0.00 95 1010.3
20260509073659 71 135 0.0 0.0 0.00 0.00 0.00 95 1010.3
20260509073155 71 135 0.0 0.0 0.00 0.00 0.00 95 1010.3
20260509072652 71 135 0.0 0.0 0.00 0.00 0.00 95 1010.2
20260509072148 71 135 0.0 0.0 0.00 0.00 0.00 95 1010.1
20260509071645 71 135 0.0 0.0 0.00 0.00 0.00 95 1010.1
20260509071143 71 135 0.0 0.0 0.00 0.00 0.00 95 1010.0
20260509070639 71 135 0.0 0.0 0.00 0.00 0.00 95 1010.1
20260509070136 71 135 0.0 0.0 0.00 0.00 0.00 94 1009.9
20260509065632 71 135 0.0 0.0 0.00 0.00 0.00 94 1009.8
20260509065128 71 135 0.0 0.0 0.00 0.00 0.00 94 1009.9
20260509064625 71 135 0.0 0.0 0.00 0.00 0.00 94 1009.9
20260509064123 71 135 0.0 0.0 0.00 0.00 0.00 94 1009.8
20260509063620 71 135 0.0 0.0 0.00 0.00 0.00 94 1009.9
20260509063116 71 135 0.0 0.0 0.00 0.00 0.00 94 1009.9
20260509062613 71 135 0.0 0.0 0.00 0.00 0.00 94 1009.8
20260509062110 71 135 0.0 0.0 0.00 0.00 0.00 94 1009.9
20260509061607 71 135 0.0 0.0 0.00 0.00 0.00 94 1009.6
20260509061105 71 135 0.0 2.6 0.00 0.00 0.00 94 1009.6
20260509060602 71 133 0.9 1.7 0.00 0.00 0.00 93 1009.6
20260509060058 71 104 0.0 0.9 0.00 0.00 0.00 93 1009.4
20260509055553 71 136 0.9 1.7 0.00 0.00 0.00 93 1009.3
20260509055050 71 119 0.9 1.7 0.00 0.00 0.00 93 1009.3
20260509054546 71 120 1.7 2.6 0.00 0.00 0.00 93 1009.3
20260509054044 71 140 1.7 3.5 0.00 0.00 0.00 93 1009.4
20260509053543 71 99 0.9 2.6 0.00 0.00 0.00 93 1009.3
20260509053039 71 122 0.9 1.7 0.00 0.00 0.00 93 1009.4
20260509052537 71 127 1.7 2.6 0.00 0.00 0.00 93 1009.4
20260509052035 71 107 0.0 1.7 0.00 0.00 0.00 93 1009.2
20260509051533 71 143 1.7 3.5 0.00 0.00 0.00 93 1009.3
20260509051030 71 110 0.0 1.7 0.00 0.00 0.00 93 1009.3
20260509050526 71 143 0.9 1.7 0.00 0.00 0.00 93 1009.2
20260509050023 71 120 0.9 1.7 0.00 0.00 0.00 94 1009.4
20260509045520 71 116 2.6 3.5 0.00 0.00 0.00 94 1009.4
20260509045017 71 160 0.9 3.5 0.00 0.00 0.00 94 1009.5
20260509044515 71 139 0.0 0.9 0.00 0.00 0.00 94 1009.5
20260509044012 71 127 0.0 1.7 0.00 0.00 0.00 94 1009.4
20260509043508 71 113 0.9 2.6 0.00 0.00 0.00 94 1009.4
20260509043004 71 148 1.7 2.6 0.00 0.00 0.00 95 1009.2
20260509042500 71 129 1.7 2.6 0.00 0.00 0.00 95 1009.2
20260509041956 71 131 1.7 2.6 0.00 0.00 0.00 95 1009.3
20260509041453 71 135 0.0 0.9 0.00 0.00 0.00 95 1009.3
20260509040951 71 133 0.0 2.6 0.00 0.00 0.00 95 1009.3
20260509040449 70 133 1.7 2.6 0.00 0.00 0.00 95 1009.0
20260509035945 70 131 0.9 2.6 0.00 0.00 0.00 95 1009.1
20260509035442 70 142 0.9 1.7 0.00 0.00 0.00 96 1009.1
20260509034939 70 120 0.0 0.9 0.00 0.00 0.00 96 1009.0
20260509034437 70 117 0.9 1.7 0.00 0.00 0.00 96 1008.9
20260509033934 70 121 0.9 3.5 0.00 0.00 0.00 96 1008.9
20260509033431 70 121 0.0 2.6 0.00 0.00 0.00 96 1009.0
20260509032927 69 121 0.0 0.9 0.00 0.00 0.00 96 1008.9
20260509032425 69 135 0.0 0.9 0.00 0.00 0.00 95 1008.9
20260509031923 69 130 0.0 1.7 0.00 0.00 0.00 95 1008.8
20260509031420 69 126 0.0 0.9 0.00 0.00 0.00 95 1009.0
20260509030917 69 126 0.0 0.0 0.00 0.00 0.00 95 1008.6
20260509030415 69 126 0.0 0.0 0.00 0.00 0.00 95 1008.8
20260509025912 69 126 0.0 0.0 0.00 0.00 0.00 95 1008.7
20260509025407 68 126 0.0 0.0 0.00 0.00 0.00 94 1008.5
20260509024902 68 126 0.0 0.0 0.00 0.00 0.00 94 1008.7
20260509024359 68 126 0.0 0.0 0.00 0.00 0.00 94 1008.8
20260509023856 69 126 0.0 0.0 0.00 0.00 0.00 94 1008.7
20260509023353 69 126 0.0 0.0 0.00 0.00 0.00 94 1008.5
20260509022850 69 126 0.0 0.0 0.00 0.00 0.00 94 1008.5
20260509022347 69 126 0.0 0.0 0.00 0.00 0.00 93 1008.4
20260509021844 69 126 0.0 0.0 0.00 0.00 0.00 93 1008.2
20260509021341 69 126 0.0 0.0 0.00 0.00 0.00 93 1008.3
20260509020839 69 126 0.0 0.0 0.00 0.00 0.00 92 1008.2
20260509020337 69 126 0.0 0.0 0.00 0.00 0.00 92 1008.2
20260509015834 70 126 0.0 0.0 0.00 0.00 0.00 92 1008.3
20260509015332 70 126 0.0 0.0 0.00 0.00 0.00 92 1008.2
20260509014828 70 126 0.0 0.0 0.00 0.00 0.00 91 1008.1
20260509014325 70 126 0.0 0.0 0.00 0.00 0.00 91 1007.9
20260509013822 71 126 0.0 0.0 0.00 0.00 0.00 90 1007.8
20260509013318 71 126 0.0 0.0 0.00 0.00 0.00 90 1007.9
20260509012814 71 126 0.0 0.0 0.00 0.00 0.00 89 1008.0
20260509012311 72 126 0.0 0.0 0.00 0.00 0.00 88 1008.0
20260509011809 72 126 0.0 0.0 0.00 0.00 0.00 88 1008.0
20260509011306 72 126 0.9 1.7 0.00 0.00 0.00 88 1008.0
20260509010803 72 117 0.0 0.9 0.00 0.00 0.00 87 1007.8
20260509010300 73 117 0.0 1.7 0.00 0.00 0.00 86 1007.7
20260509005758 73 110 0.0 0.9 0.00 0.00 0.00 86 1007.7
20260509005256 73 110 0.0 0.0 0.00 0.00 0.00 85 1007.8
20260509004755 73 110 0.0 0.9 0.00 0.00 0.00 84 1007.9
20260509004252 74 118 0.9 1.7 0.00 0.00 0.00 83 1007.9
20260509003750 74 119 1.7 2.6 0.00 0.00 0.00 83 1007.9
20260509003247 74 122 0.0 3.5 0.00 0.00 0.00 82 1008.1
20260509002745 75 121 0.9 1.7 0.00 0.00 0.00 82 1007.9
20260509002242 75 138 0.9 2.6 0.00 0.00 0.00 81 1007.8
20260509001740 75 129 3.5 3.5 0.00 0.00 0.00 80 1007.9
20260509001235 76 94 0.9 3.5 0.00 0.00 0.00 80 1008.0
20260509000733 76 108 0.9 0.9 0.00 0.00 0.00 81 1008.0
20260509000230 76 108 0.0 0.9 0.00 0.00 0.00 82 1008.2
20260508235727 76 120 0.9 3.5 0.00 0.00 0.00 81 1008.5
20260508235224 76 111 0.9 1.7 0.00 0.00 0.00 82 1008.7
20260508234722 76 108 0.0 2.6 0.00 0.00 0.00 82 1008.6
20260508234218 76 140 1.7 1.7 0.00 0.00 0.00 82 1008.5
20260508233717 77 168 3.5 5.2 0.00 0.00 0.00 81 1008.5
20260508233215 77 129 0.9 1.7 0.00 0.00 0.00 82 1008.4
20260508232712 76 129 0.0 0.9 0.00 0.00 0.00 82 1008.6
20260508232208 76 94 0.0 0.9 0.00 0.00 0.00 82 1008.5
20260508231706 77 94 0.0 0.9 0.00 0.00 0.00 83 1008.6
20260508231203 77 94 0.0 0.9 0.00 0.00 0.00 82 1008.4
20260508230700 77 94 0.0 0.0 0.00 0.00 0.00 82 1008.5
20260508230156 77 94 0.0 0.0 0.00 0.00 0.00 81 1008.4
20260508225654 77 94 0.0 0.0 0.00 0.00 0.00 81 1008.7
20260508225150 77 94 0.0 0.0 0.00 0.00 0.00 79 1008.7
20260508224648 78 95 0.0 1.7 0.00 0.00 0.00 78 1008.7
20260508224145 78 95 0.0 0.9 0.00 0.00 0.00 76 1008.6
20260508223643 79 106 0.0 0.9 0.00 0.00 0.00 75 1008.5
20260508223140 79 106 0.0 0.0 0.00 0.00 0.00 77 1008.8
20260508222637 79 106 0.9 1.7 0.00 0.00 0.00 78 1008.7
20260508222134 78 106 0.0 0.9 0.00 0.00 0.00 77 1008.8
20260508221630 78 106 0.0 0.9 0.00 0.00 0.00 76 1008.8
20260508221126 78 106 0.9 0.9 0.00 0.00 0.00 76 1009.1
20260508220623 78 106 0.0 0.9 0.00 0.00 0.00 77 1008.9
20260508220120 78 106 0.0 0.9 0.00 0.00 0.00 77 1009.0
20260508215616 78 106 0.0 0.9 0.00 0.00 0.00 76 1008.8
20260508215113 78 107 0.0 1.7 0.00 0.00 0.00 76 1008.8
20260508214610 79 127 0.0 2.6 0.00 0.00 0.00 74 1008.8
20260508214107 79 125 0.9 1.7 0.00 0.00 0.00 76 1008.8
20260508213604 78 124 0.9 1.7 0.00 0.00 0.00 76 1008.8
20260508213100 78 124 0.9 0.9 0.00 0.00 0.00 75 1008.8
20260508212556 78 123 0.9 1.7 0.00 0.00 0.00 75 1008.8
20260508212053 78 101 0.9 2.6 0.00 0.00 0.00 76 1008.7
20260508211548 78 99 0.9 1.7 0.00 0.00 0.00 75 1008.8
20260508211045 78 123 0.9 3.5 0.00 0.00 0.00 75 1008.9
20260508210541 79 103 0.9 2.6 0.00 0.00 0.00 74 1009.0
20260508210039 78 116 0.0 1.7 0.00 0.00 0.00 75 1009.0
20260508205536 78 113 0.9 0.9 0.00 0.00 0.00 73 1009.0
20260508205032 78 110 0.0 0.9 0.00 0.00 0.00 74 1009.1
20260508204529 78 133 0.0 0.9 0.00 0.00 0.00 74 1009.1
20260508204025 78 113 0.9 1.7 0.00 0.00 0.00 74 1009.2
20260508203521 79 125 0.9 3.5 0.00 0.00 0.00 73 1009.4
20260508203017 78 102 0.0 1.7 0.00 0.00 0.00 74 1009.4
20260508202514 77 141 0.9 1.7 0.00 0.00 0.00 76 1009.3
20260508202011 77 126 0.0 1.7 0.00 0.00 0.00 75 1009.7
20260508201508 77 96 0.9 1.7 0.00 0.00 0.00 74 1009.8
20260508201004 77 97 0.0 2.6 0.00 0.00 0.00 73 1009.9
20260508200501 78 124 0.9 1.7 0.00 0.00 0.00 73 1009.8
20260508195956 78 123 0.0 0.0 0.00 0.00 0.00 72 1010.0
20260508195454 78 123 0.0 0.9 0.00 0.00 0.00 72 1010.0
20260508194950 78 110 0.0 1.7 0.00 0.00 0.00 72 1009.9
20260508194447 78 114 1.7 1.7 0.00 0.00 0.00 71 1010.1
20260508193944 78 114 0.0 0.9 0.00 0.00 0.00 70 1010.3
20260508193441 78 114 1.7 2.6 0.00 0.00 0.00 71 1010.4
20260508192937 78 135 0.9 2.6 0.00 0.00 0.00 70 1010.5
20260508192434 79 117 0.9 1.7 0.00 0.00 0.00 69 1010.3
20260508191931 80 129 0.0 1.7 0.00 0.00 0.00 67 1010.4
20260508191429 79 76 0.0 2.6 0.00 0.00 0.00 69 1010.4
20260508190925 78 116 0.9 2.6 0.00 0.00 0.00 71 1010.4
20260508190422 77 92 0.0 0.9 0.00 0.00 0.00 71 1010.4
20260508185918 77 141 1.7 2.6 0.00 0.00 0.00 72 1010.4
20260508185416 76 121 0.9 2.6 0.00 0.00 0.00 73 1010.3
20260508184913 76 115 0.9 2.6 0.00 0.00 0.00 72 1010.2
20260508184410 77 80 0.9 2.6 0.00 0.00 0.00 71 1010.4
20260508183907 76 81 1.7 1.7 0.00 0.00 0.00 71 1010.5
20260508183403 75 99 0.9 0.9 0.00 0.00 0.00 74 1010.7
20260508182859 74 120 0.0 1.7 0.00 0.00 0.00 75 1010.6
20260508182356 73 75 1.7 2.6 0.00 0.00 0.00 76 1010.8
20260508181852 73 104 1.7 2.6 0.00 0.00 0.00 77 1010.8
20260508181349 72 125 1.7 2.6 0.00 0.00 0.00 77 1010.9
20260508180846 72 97 0.9 1.7 0.00 0.00 0.00 79 1011.0
20260508180342 72 95 0.9 0.9 0.00 0.00 0.00 78 1011.2
20260508175838 72 73 0.9 2.6 0.00 0.00 0.00 79 1011.2
20260508175335 71 117 0.9 0.9 0.00 0.00 0.00 80 1011.6
20260508174834 71 109 1.7 5.2 0.00 0.00 0.00 80 1011.4
20260508174331 70 118 0.9 1.7 0.00 0.00 0.00 80 1011.5